• In Uzbekistan
  • List of Countries
  • For 7 days
  • Water Temperature
  • Satellite Maps
  • Weather Map
  • Weather Widgets
  • user-avatar
    Login

    Hourly Weather Satif

    Today, 27 March, Monday

    Time Temperature Precipitation Wind Pressure Humidity
    00:00 +7°C° 0 mm 2 mps 671 mmHg 53%
    01:00 +6°C° 0 mm 2 mps 670 mmHg 56%
    02:00 +6°C° 0 mm 2 mps 670 mmHg 60%
    03:00 +6°C° 0 mm 2 mps 670 mmHg 64%
    04:00 +6°C° 0 mm 2 mps 670 mmHg 63%
    05:00 +6°C° 0 mm 2 mps 670 mmHg 62%
    06:00 +7°C° 0 mm 2 mps 670 mmHg 61%
    07:00 +10°C° 0 mm 2 mps 672 mmHg 52%
    08:00 +14°C° 0 mm 2 mps 673 mmHg 43%
    09:00 +17°C° 0 mm 3 mps 675 mmHg 34%
    10:00 +18°C° 0 mm 3 mps 675 mmHg 32%
    11:00 +19°C° 0 mm 3 mps 675 mmHg 31%
    12:00 +20°C° 0 mm 3 mps 675 mmHg 29%
    13:00 +20°C° 0 mm 3 mps 675 mmHg 31%
    14:00 +19°C° 0 mm 3 mps 675 mmHg 33%
    15:00 +19°C° 0 mm 3 mps 675 mmHg 34%
    16:00 +17°C° 0 mm 2 mps 674 mmHg 45%
    17:00 +14°C° 0 mm 2 mps 674 mmHg 57%
    18:00 +10°C° 0 mm 2 mps 674 mmHg 68%
    19:00 +9°C° 0 mm 2 mps 674 mmHg 75%
    20:00 +8°C° 0 mm 2 mps 674 mmHg 83%
    21:00 +8°C° 0 mm 1 mps 674 mmHg 90%
    22:00 +7°C° 0 mm 1 mps 674 mmHg 92%
    23:00 +6°C° 0 mm 1 mps 674 mmHg 93%

    Tomorrow, 28 March, Tuesday

    Time Temperature Precipitation Wind Pressure Humidity
    00:00 +6°C° 0 mm 1 mps 674 mmHg 95%
    01:00 +6°C° 0 mm 1 mps 674 mmHg 95%
    02:00 +5°C° 0 mm 1 mps 674 mmHg 95%
    03:00 +5°C° 0 mm 1 mps 673 mmHg 95%
    04:00 +5°C° 0 mm 1 mps 674 mmHg 95%
    05:00 +6°C° 0 mm 1 mps 674 mmHg 94%
    06:00 +6°C° 0 mm 1 mps 674 mmHg 93%
    07:00 +7°C° 0 mm 2 mps 675 mmHg 77%
    08:00 +10°C° 0 mm 2 mps 676 mmHg 61%
    09:00 +13°C° 0 mm 2 mps 677 mmHg 45%
    10:00 +13°C° 0 mm 3 mps 677 mmHg 42%
    11:00 +14°C° 0 mm 3 mps 677 mmHg 39%
    12:00 +17°C° 0 mm 3 mps 677 mmHg 36%
    13:00 +15°C° 0 mm 4 mps 677 mmHg 38%
    14:00 +15°C° 0 mm 4 mps 676 mmHg 39%
    15:00 +15°C° 0 mm 4 mps 676 mmHg 41%
    16:00 +13°C° 0 mm 4 mps 676 mmHg 51%
    17:00 +11°C° 0 mm 3 mps 676 mmHg 62%
    18:00 +8°C° 0 mm 2 mps 675 mmHg 72%
    19:00 +7°C° 0 mm 2 mps 676 mmHg 79%
    20:00 +6°C° 0 mm 2 mps 676 mmHg 85%
    21:00 +6°C° 0 mm 1 mps 676 mmHg 92%
    22:00 +6°C° 0 mm 1 mps 676 mmHg 93%
    23:00 +6°C° 0 mm 1 mps 676 mmHg 94%

    Day after tomorrow, 29 March, Wednesday

    Time Temperature Precipitation Wind Pressure Humidity
    00:00 +5°C° 0 mm 1 mps 676 mmHg 94%
    01:00 +5°C° 0 mm 1 mps 676 mmHg 94%
    02:00 +5°C° 0 mm 1 mps 675 mmHg 94%
    03:00 +5°C° 0 mm 1 mps 675 mmHg 93%
    04:00 +5°C° 0 mm 1 mps 675 mmHg 93%
    05:00 +5°C° 0 mm 1 mps 676 mmHg 93%
    06:00 +5°C° 0 mm 1 mps 676 mmHg 92%
    07:00 +7°C° 0 mm 1 mps 676 mmHg 81%
    08:00 +9°C° 0 mm 1 mps 677 mmHg 70%
    09:00 +10°C° 0 mm 2 mps 678 mmHg 58%
    10:00 +12°C° 0 mm 2 mps 678 mmHg 50%
    11:00 +13°C° 0 mm 2 mps 678 mmHg 42%
    12:00 +14°C° 0 mm 3 mps 678 mmHg 34%
    13:00 +14°C° 0 mm 3 mps 677 mmHg 34%
    14:00 +14°C° 0 mm 3 mps 677 mmHg 34%
    15:00 +13°C° 0 mm 4 mps 677 mmHg 34%
    16:00 +11°C° 0 mm 3 mps 676 mmHg 44%
    17:00 +9°C° 0 mm 3 mps 676 mmHg 54%
    18:00 +6°C° 0 mm 2 mps 675 mmHg 64%
    19:00 +5°C° 0 mm 2 mps 676 mmHg 71%
    20:00 +4°C° 0 mm 1 mps 676 mmHg 79%
    21:00 +3°C° 0 mm 1 mps 676 mmHg 86%
    22:00 +2°C° 0 mm 1 mps 676 mmHg 86%
    23:00 +2°C° 0 mm 1 mps 675 mmHg 86%

    30 March, Thursday

    Time Temperature Precipitation Wind Pressure Humidity
    00:00 +1°C° 0 mm 1 mps 675 mmHg 86%
    01:00 +1°C° 0 mm 1 mps 675 mmHg 85%
    02:00 +1°C° 0 mm 1 mps 675 mmHg 84%
    03:00 0°C° 0 mm 1 mps 675 mmHg 83%
    04:00 +1°C° 0 mm 1 mps 675 mmHg 79%
    05:00 +1°C° 0 mm 1 mps 675 mmHg 75%
    06:00 +1°C° 0 mm 1 mps 675 mmHg 71%
    07:00 +6°C° 0 mm 1 mps 676 mmHg 56%
    08:00 +10°C° 0 mm 1 mps 678 mmHg 41%
    09:00 +14°C° 0 mm 1 mps 679 mmHg 26%
    10:00 +16°C° 0 mm 1 mps 679 mmHg 24%
    11:00 +18°C° 0 mm 1 mps 679 mmHg 21%
    12:00 +20°C° 0 mm 1 mps 679 mmHg 19%
    13:00 +19°C° 0 mm 2 mps 679 mmHg 20%
    14:00 +18°C° 0 mm 2 mps 679 mmHg 21%
    15:00 +18°C° 0 mm 2 mps 678 mmHg 22%
    16:00 +15°C° 0 mm 2 mps 677 mmHg 35%
    17:00 +11°C° 0 mm 1 mps 676 mmHg 49%
    18:00 +8°C° 0 mm 1 mps 676 mmHg 62%
    19:00 +7°C° 0 mm 1 mps 676 mmHg 65%
    20:00 +6°C° 0 mm 1 mps 676 mmHg 69%
    21:00 +6°C° 0 mm 1 mps 676 mmHg 72%
    22:00 +6°C° 0 mm 1 mps 676 mmHg 70%
    23:00 +6°C° 0 mm 1 mps 676 mmHg 68%

    31 March, Friday

    Time Temperature Precipitation Wind Pressure Humidity
    00:00 +5°C° 0 mm 2 mps 676 mmHg 65%
    01:00 +5°C° 0 mm 2 mps 675 mmHg 66%
    02:00 +5°C° 0 mm 2 mps 675 mmHg 66%
    03:00 +5°C° 0 mm 2 mps 675 mmHg 66%
    04:00 +5°C° 0 mm 2 mps 675 mmHg 66%
    05:00 +6°C° 0 mm 2 mps 675 mmHg 66%
    06:00 +6°C° 0 mm 2 mps 675 mmHg 66%
    07:00 +9°C° 0 mm 3 mps 676 mmHg 55%
    08:00 +12°C° 0 mm 3 mps 677 mmHg 44%
    09:00 +17°C° 0 mm 4 mps 678 mmHg 32%
    10:00 +18°C° 0 mm 4 mps 678 mmHg 30%
    11:00 +19°C° 0 mm 4 mps 677 mmHg 28%
    12:00 +20°C° 0 mm 4 mps 677 mmHg 25%
    13:00 +20°C° 0 mm 4 mps 677 mmHg 25%
    14:00 +21°C° 0 mm 4 mps 676 mmHg 25%
    15:00 +21°C° 0 mm 3 mps 676 mmHg 25%
    16:00 +18°C° 0 mm 3 mps 675 mmHg 34%
    17:00 +15°C° 0 mm 2 mps 674 mmHg 44%
    18:00 +12°C° 0 mm 1 mps 673 mmHg 54%
    19:00 +10°C° 0.3 mm 2 mps 673 mmHg 56%
    20:00 +10°C° 0.3 mm 2 mps 673 mmHg 59%
    21:00 +9°C° 0.3 mm 2 mps 674 mmHg 61%
    22:00 +9°C° 0.1 mm 2 mps 673 mmHg 61%
    23:00 +8°C° 0.1 mm 2 mps 673 mmHg 61%

    1 April, Saturday

    Time Temperature Precipitation Wind Pressure Humidity
    00:00 +8°C° 0.1 mm 2 mps 672 mmHg 60%
    01:00 +8°C° 0 mm 2 mps 672 mmHg 61%
    02:00 +7°C° 0 mm 2 mps 671 mmHg 62%
    03:00 +7°C° 0 mm 2 mps 671 mmHg 62%
    04:00 +7°C° 0 mm 2 mps 671 mmHg 62%
    05:00 +7°C° 0 mm 2 mps 671 mmHg 62%
    06:00 +7°C° 0 mm 2 mps 671 mmHg 62%
    07:00 +10°C° 0 mm 2 mps 672 mmHg 54%
    08:00 +12°C° 0 mm 3 mps 672 mmHg 46%
    09:00 +15°C° 0 mm 4 mps 673 mmHg 38%
    10:00 +17°C° 0.1 mm 4 mps 673 mmHg 38%
    11:00 +17°C° 0.1 mm 5 mps 673 mmHg 38%
    12:00 +17°C° 0.1 mm 5 mps 673 mmHg 38%
    13:00 +16°C° 0.4 mm 5 mps 672 mmHg 41%
    14:00 +15°C° 0.4 mm 6 mps 672 mmHg 45%
    15:00 +15°C° 0.4 mm 6 mps 671 mmHg 48%
    16:00 +13°C° 0.1 mm 5 mps 671 mmHg 55%
    17:00 +11°C° 0.1 mm 4 mps 671 mmHg 61%
    18:00 +9°C° 0.1 mm 3 mps 670 mmHg 67%
    19:00 +7°C° 0.1 mm 2 mps 670 mmHg 73%
    20:00 +6°C° 0.1 mm 2 mps 670 mmHg 78%
    21:00 +5°C° 0.1 mm 2 mps 670 mmHg 83%
    22:00 +4°C° 0 mm 2 mps 670 mmHg 86%
    23:00 +4°C° 0 mm 2 mps 670 mmHg 88%
    Show more